sat.trackr.live / text

‹ back to catalog

STARLINK-1771

NORAD 46384 · 2020-062BM

PAYLOAD ACTIVE UNKNOWN

§ Identity

Operator
Country
US
Launch date
2020-09-03
Launch site
AFETR
Launch vehicle
Mass (kg)
RCS (m²)

Purposes: comms

External: N2YO · Heavens-Above · Gunter

§ Orbital elements

Epoch: 2026-09-09T04:17:36.129696Z

Period
91.55 min
Inclination
53.0343°
Eccentricity
0.0004756
Mean motion
15.72925238 rev/d
Perigee alt
347.3 km
Apogee alt
353.7 km
Semi-major
6,728.7 km
B*
4.3707e-4
RAAN
170.8780°
Arg perigee
96.1135°
Mean anomaly
264.0425°
Rev number
33,339

§ Raw data

STARLINK-17711 46384U 20062BM  26252.17889039  .00060484  00000+0  43707-3 0  99922 46384  53.0343 170.8780 0004756  96.1135 264.0425 15.72925238333391

JSON: /api/v1/satellites/46384 · /tle

For live sub-satellite position, see the globe view (requires WebGL).

§ Visibility from observer

Set your observer location to see the next 7 days of passes ≥ 10°. The values pass through the URL so the page stays shareable.

No JS? Fill the form by hand. The geolocation button needs JavaScript.